COSMOS 2251 DEB

Satellite information

Favourite Embed

Satellite Type and Status

DEBRISIN ORBIT

Key statistics

Satellite COSMOS 2251 DEB at a glance.

Uptime

11816

Days in orbit

Revolutions

≈ 14.1

Per day

Orbit

LEO

Low Earth Orbit

Inclination

74.1

Latest

Satellite identification and parameters

Extended collection of information and parameters for COSMOS 2251 DEB.

Object identification

Identified? True

Debris? True

Object name: COSMOS 2251 DEB

International designator: 1993-036BPK

Object number (NORAD): 37960

Object ID (CCSDS): 37960

Country: COMMONWEALTH OF INDEPENDENT STATES (CIS)

Current information (Y/N): Y

RCS size: SMALL

Orbital parameters

Period: 102.309 minutes

Inclination: 74.0578 deg

SMA: 7246.063 km

Apoapsis: 1050.909 km

Periapsis: 684.947 km

RAAN: 279.8682 deg

Eccentricy: 0.02525242

Argument of periapsis: 310.7916 deg

Mean anomaly: 47.1553 deg

Mean motion: 14.07503874 rev/day

Mean motion (dot): 0.00004083 rev/day2

B* drag term: 0.0018217327 1/REarth

Two-line elements (TLE)

Creation date: Oct. 21, 2025, 3:26 a.m.

Reference frame: TEME

Reference center: EARTH

Epoch: Oct. 20, 2025, 4:18 p.m. UTC

TLE line 0: 0 COSMOS 2251 DEB

TLE line 1: 1 37960U 93036BPK 25293.67965871 .00004083 00000-0 18217-2 0 9992

TLE line 2: 2 37960 74.0578 279.8682 0252524 310.7916 47.1553 14.07503874766594

Live tracking on map

Real-time ground track for satellite COSMOS 2251 DEB.

In-orbit conjunctions

A list of the most updated potential collisions computed for object COSMOS 2251 DEB.

Target Orbit TCA Probability of collision Miss distance Type
ASUSAT SSO 2025-01-25 01:48:48 0.000298617 642.0 (m) PAYLOAD
THOR ABLESTAR DEB LEO 2024-11-10 14:29:41 0.0006180895 921.0 (m) DEBRIS

Associated space launch

Military communications satellite. Destroyed in a collision with Iridium 33.

COSMOS 2251 DEB was lifted into orbit during the mission ‘Kosmos-3M | Strela-2M 51’, on board a Kosmos-3M space rocket.

The launch took place on June 16, 1993, 4:17 a.m. from 132/1 (132L).

For more information about the launch, click the button.

Launch to space Kosmos-3M | Strela-2M 51
Kosmos-3M | Strela-2M 51

Agency: N/A

Status: Launch Successful

Launch date: June 16, 1993, 4:17 a.m. UTC

Rocket: Kosmos-3M

Launch pad: 132/1 (132L)

Location: Plesetsk Cosmodrome, Russian Federation

...

Latest news about this satellite

There are no fresh news available about this satellite. Check back as we update our databases every day.


Newsletter sign-up

Weekly statistics, charts and insights to help you stay on top of the space industry.